{"data":{"norad_id":52002,"epoch":"2026-05-24T22:28:58.611936Z","epoch_age_seconds":76899,"freshness":"FRESH","line1":"1 52002U 22025AY  26144.93678949  .00001770  00000+0  12929-3 0  9992","line2":"2 52002  53.2131  36.8716 0001340  70.6042 289.5095 15.08828962232435","mean_motion":15.08828962,"eccentricity":0.000134,"inclination_deg":53.2131,"raan_deg":36.8716,"arg_perigee_deg":70.6042,"mean_anomaly_deg":289.5095,"bstar":0.00012929,"rev_number":23243,"period_min":95.438252861427,"perigee_km":538.85012742683,"apogee_km":540.70412841311,"semimajor_km":6917.91412792,"source":"CELESTRAK","updated_at":"2026-05-25T13:38:17.000169Z"}}